This is the latest recevied weather packets stored in our database for station/object EA3IK-7. If no packets are shown the sender has not sent any weather packets the latest 10 day(s).
| Time | Temp. | Humidity | Pressure | Rain* | Wind** | Luminosity | Snow |
|---|---|---|---|---|---|---|---|
| 1788139607 | 73° F | 75% | 760 mmHg | - | - | - | - |
| 1788139576 | 73° F | 75% | 760 mmHg | - | - | - | - |
| 1788139575 | 73° F | 75% | 760 mmHg | - | - | - | - |
| 1788137776 | 73° F | 74% | 760 mmHg | - | - | - | - |
| 1788135976 | 73° F | 74% | 759.9 mmHg | - | - | - | - |
| 1788135975 | 73° F | 74% | 759.9 mmHg | - | - | - | - |
| 1788134175 | 74° F | 74% | 759.9 mmHg | - | - | - | - |
| 1788132375 | 74° F | 72% | 759.8 mmHg | - | - | - | - |
| 1788130575 | 75° F | 72% | 759.8 mmHg | - | - | - | - |
| 1788128775 | 76° F | 71% | 759.7 mmHg | - | - | - | - |
| 1788126975 | 77° F | 70% | 759.7 mmHg | - | - | - | - |
| 1788125175 | 77° F | 70% | 759.4 mmHg | - | - | - | - |
| 1788123375 | 78° F | 69% | 759.4 mmHg | - | - | - | - |
| 1788121575 | 79° F | 67% | 759.4 mmHg | - | - | - | - |
| 1788117975 | 81° F | 62% | 759 mmHg | - | - | - | - |
| 1788116175 | 83° F | 58% | 758.7 mmHg | - | - | - | - |
| 1788116175 | 83° F | 58% | 758.7 mmHg | - | - | - | - |
| 1788114375 | 84° F | 53% | 758.5 mmHg | - | - | - | - |
| 1788112575 | 86° F | 48% | 758.5 mmHg | - | - | - | - |
| 1788110775 | 86° F | 43% | 757.6 mmHg | - | - | - | - |
| 1788108975 | 88° F | 40% | 758.5 mmHg | - | - | - | - |
| 1788107175 | 89° F | 40% | 758.5 mmHg | - | - | - | - |
| 1788107174 | 89° F | 40% | 758.5 mmHg | - | - | - | - |
| 1788105374 | 90° F | 39% | 758.3 mmHg | - | - | - | - |
| 1788103574 | 90° F | 39% | 758.5 mmHg | - | - | - | - |
* Rain since midnight (hover to see other rain measurements)
** Current wind speed in m/s (hover to see current wind gust speed)